Location: Clairmont
(55.2667°N, 118.8000°W)
Time: 14:46:45
(UTC+00:00)

Envisat - Pass Details

Date: 05 November 2020
Orbit: 764 x 766 km, 98.1° (Epoch: 03 December)

Event Time Altitude Azimuth Distance (km) Brightness Sun altitude
Rises 02:43:09 0° 225° (SW) 3,228 6.8 -22.1°
Reaches altitude 10° 02:47:02 10° 255° (WSW) 2,308 6.5 -22.6°
Maximum altitude 02:49:01 12° 278° (W) 2,160 6.4 -22.9°
Drops below altitude 10° 02:51:02 10° 302° (WNW) 2,314 6.3 -23.2°
Sets 02:54:57 0° 332° (NNW) 3,247 6.7 -23.7°
